Location: Elstree
(51.6403°N, 0.2969°W)
Time: 01:49:34
(UTC+00:00)

Cosmos 2242 Rocket - Pass Details

Date: 03 March 2021
Orbit: 617 x 652 km, 82.5° (Epoch: 11 April)

Event Time Altitude Azimuth Distance (km) Brightness Sun altitude
Rises 19:03:57 0° 350° (N) 2,966 7.3 -13.0°
Reaches altitude 10° 19:06:14 10° 352° (N) 2,046 6.4 -13.3°
Maximum altitude 19:10:46 74° 79° (ENE) 667 3.5 -14.0°
Drops below altitude 10° 19:15:13 10° 164° (SSE) 2,007 5.9 -14.7°
Sets 19:17:26 0° 166° (SSE) 2,905 6.8 -15.1°
